Volver al catálogo

PEGASUS DEB

ActivoPO
NORAD 24340·DEBRIS·🇺🇸 United States

Lanzado May 19, 1994 desde Vandenberg Space Force Base

Loading…

Próximos Pases (próximas 24 horas)

TLE

ActualizadoSource: Space-Track

Época: Sep 14, 2026, 07:45 UTC

1 24340U 94029NR  26257.32322780  .00000539  00000-0  22496-3 0  9999
2 24340  81.5934 228.7059 0827051 266.3792  84.2493 13.16675251537266

Sigue PEGASUS DEB en tiempo real con AllMySat

Download on the App Store